Regional Weather Roundup
Issued by NWS

Home | Current Version | Previous Version | Graphics & Text | Print | Product List | Glossary On
Versions: 1 2 3 4 5 6 7 8 9 10 11 12 13 14 15 16 17 18 19 20 21 22 23 24 25 26 27 28 29 30 31 32 33 34 35 36 37 38 39 40 41 42 43 44 45 46 47 48 49 50
691
ASUS43 KIND 161759
RWRIN

WEATHER ROUNDUP FOR INDIANA
NATIONAL WEATHER SERVICE INDIANAPOLIS IN
100 PM EST TUE JAN 16 2018

NOTE: "FAIR" INDICATES FEW OR NO CLOUDS BELOW 12,000 FEET WITH NO
SIGNIFICANT WEATHER AND/OR OBSTRUCTIONS TO VISIBILITY.

* - STATION DOES NOT REPORT WEATHER SUCH AS PRECIPITATION OR FOG.

+ - STATION NOT QUALITY CONTROLLED BY THE NATIONAL WEATHER SERVICE.
    USE DATA WITH CAUTION...ESPECIALLY DEWPOINT AND RELATIVE
    HUMIDITY OBSERVATIONS.

INZ001>003-010>013-019-020-161900-
NORTHWEST INDIANA

CITY           SKY/WX    TMP DP  RH WIND       PRES   REMARKS
KNOX *+        CLOUDY    10   3  72 SW12      30.45F WCI  -4
MONTICELLO +   LGT SNOW   5  -1  76 W12       30.48F WCI -11
6HR MIN TEMP:  -1; 6HR MAX TEMP:   5;

VALPARAISO     LGT SNOW  14   8  77 SW8       30.42F WCI   3

$$

LMZ046-743>745-161900-
SOUTHERN LAKE MICHIGAN

STATION/POSITION TIME  TEMP    WIND        PRES    WAVE
                       AIR SEA DIR/SP/G            HT
                 (UTC) (F)     (DEG/KT/KT) (MB)    (FT)
BURNS HARBOR     1740   15     200/  9/ 14 1030.8F
MICHIGAN CITY    1730          180/ 10/ 11   N/A

$$

INZ004-005-014>016-021>024-161900-
NORTH CENTRAL INDIANA

CITY           SKY/WX    TMP DP  RH WIND       PRES   REMARKS
GOSHEN         LGT SNOW   6   0  76 SW10      30.42F WCI  -9
6HR MIN TEMP:  -2; 6HR MAX TEMP:   6; 6HR PCP: TRACE;

SOUTH BEND     LGT SNOW   5   0  79 SW9       30.43F WCI  -9
6HR MIN TEMP:  -2; 6HR MAX TEMP:   5; 6HR PCP:  0.02;


$$

INZ006>009-017-018-025>027-161900-
NORTHEAST INDIANA

CITY           SKY/WX    TMP DP  RH WIND       PRES   REMARKS
FORT WAYNE     PTSUNNY    5  -2  72 SW13      30.45F WCI -12
6HR MIN TEMP:  -4; 6HR MAX TEMP:   5; 6HR PCP: TRACE;

KENDALLVILLE + PTSUNNY    6  -1  74 W8        30.41F HAZE    WCI  -7

$$

INZ028-029-035-036-043>045-051>053-161900-
WEST CENTRAL INDIANA

CITY           SKY/WX    TMP DP  RH WIND       PRES   REMARKS
GREENCASTLE +  CLOUDY     5  -6  61 SW5       30.52F WCI  -4
LAFAYETTE      CLOUDY     6   0  76 SW10      30.50F WCI  -9
6HR MIN TEMP:  -2; 6HR MAX TEMP:   6; 6HR PCP: TRACE;

TERRE HAUTE    CLOUDY     3  -5  69 SW9       30.57F WCI -12
6HR MIN TEMP:  -9; 6HR MAX TEMP:   4; 6HR PCP: TRACE;


$$

INZ030>032-037>040-046>048-054>057-064-065-161900-
CENTRAL INDIANA

CITY           SKY/WX    TMP DP  RH WIND       PRES   REMARKS
ANDERSON       PTSUNNY    3  -2  78 SW12      30.49S WCI -13
COLUMBUS       PTSUNNY    7  -6  56 W6        30.55F WCI  -3
GREENWOOD *+   CLOUDY     5  -4  66 SW8       30.51F WCI  -8
INDIANAPOLIS   FLURRIES   2  -5  72 SW12      30.51F WCI -15
6HR MIN TEMP:  -5; 6HR MAX TEMP:   2; 6HR PCP: TRACE;

-EAGLE CREEK   CLOUDY     3  -4  72 VRB5      30.50F WCI  -6
6HR MIN TEMP:  -4; 6HR MAX TEMP:   3; 6HR PCP: TRACE;

MT COMFORT *+  FAIR       5   0  78 W9        30.49F WCI  -9
SHELBYVILLE    FAIR       4  -5  66 SW13      30.51F WCI -13
6HR MIN TEMP:  -4; 6HR MAX TEMP:   4;


$$

INZ033-034-041-042-049-050-058-059-161900-
EAST CENTRAL INDIANA

CITY           SKY/WX    TMP DP  RH WIND       PRES   REMARKS
MUNCIE         CLOUDY     5  -4  66 W10       30.46F WCI -10
6HR MIN TEMP:  -1; 6HR MAX TEMP:   5; 6HR PCP: TRACE;

RICHMOND +     FAIR       3  -4  72 W10       30.46F WCI -12

$$

INZ060-061-067>069-081>083-085>088-161900-
SOUTHWEST INDIANA

CITY           SKY/WX    TMP DP  RH WIND       PRES   REMARKS
EVANSVILLE     FAIR       6  -3  66 VRB7      30.64F WCI  -6
6HR MIN TEMP:   2; 6HR MAX TEMP:   7;

HUNTINGBURG +  FAIR       8  -4  58 W7        30.60F WCI  -3
6HR MIN TEMP:   0; 6HR MAX TEMP:   8;


$$

INZ062-063-066-070>080-084-089>092-161900-
SOUTH CENTRAL AND SOUTHEAST INDIANA

CITY           SKY/WX    TMP DP  RH WIND       PRES   REMARKS
BLOOMINGTON    CLOUDY     4  -5  66 SW7       30.53F WCI  -8
6HR MIN TEMP:  -6; 6HR MAX TEMP:   4;

FRENCH LICK *+ FAIR       5  -8  56 SW8       30.55F WCI  -8
MADISON *+     FAIR      10  -2  56 SW8       30.54F WCI  -1
SEYMOUR +      FAIR       9  -4  56 W9        30.55F WCI  -5

$$





USA.gov is the U.S. government's official web portal to all federal, state and local government web resources and services.